Weather History for KCPC - September, 2013

Change the Weather History Date:

Sunday, September 15, 2013

  Actual Average (KLBT) Record (KLBT)
Temperature  
Mean Temperature 74 °F 73 °F  
Max Temperature 84 °F 84 °F - ()
Min Temperature 63 °F 63 °F - ()
Degree Days  
Heating Degree Days 0 0  
Month to date heating degree days 0  
Since 1 July heating degree days 0  
Cooling Degree Days 8 8  
Month to date cooling degree days 151  
Year to date cooling degree days 1723  
Growing Degree Days 24 (Base 50)    
Moisture  
Dew Point 64 °F    
Average Humidity 77    
Maximum Humidity 96    
Minimum Humidity 53    
Precipitation  
Precipitation 0.00 in 0.15 in - ()
Month to date precipitation 2.49  
Year to date precipitation 32.88  
Sea Level Pressure  
Sea Level Pressure 30.15 in    
Wind  
Wind Speed 4 mph (ENE)    
Max Wind Speed 10 mph    
Max Gust Speed -    
Visibility 10 miles    
Events      
T = Trace of Precipitation, MM = Missing Value Source: NWS Daily Summary

Daily Weather History Graph

Daily Weather History Graph

Search for Another Location

Airport or City:

Trip Planner

Search our weather history database for the weather conditions in past years. The results will help you decide how hot, cold, wet, or windy it might be!

Date:

Astronomy

Sep. 15, 2013 Rise Set
Actual Time 6:58 AM EDT 7:21 PM EDT
Civil Twilight 6:33 AM EDT 7:46 PM EDT
Nautical Twilight 6:03 AM EDT 8:15 PM EDT
Astronomical Twilight 5:33 AM EDT 8:45 PM EDT
Moon 4:39 PM EDT (9/15) 2:43 AM EDT (9/15)
Length of Visible Light 13h 13m
Length of Day
12h 23m
Waxing Gibbous, 82% of the Moon is Illuminated
Sep 15
Waxing Gibbous
Sep 19
Full
Sep 26
Last Quarter
Oct 4
New
Oct 11
First Quarter

Hourly Weather History & Observations

Time (EDT) Temp. Heat Index Dew Point Humidity Pressure Visibility Wind Dir Wind Speed Gust Speed Precip Events Conditions
12:15 AM 66.2 °F - 61.3 °F 84% 30.11 in 10.0 mi Calm Calm - N/A   Clear
12:35 AM 65.7 °F - 61.3 °F 86% 30.11 in 10.0 mi Calm Calm - N/A   Mostly Cloudy
12:55 AM 66.2 °F - 60.8 °F 83% 30.11 in 10.0 mi Calm Calm - N/A   Scattered Clouds
1:15 AM 64.8 °F - 60.8 °F 87% 30.11 in 10.0 mi Calm Calm - N/A   Clear
1:35 AM 64.9 °F - 60.8 °F 86% 30.11 in 10.0 mi Calm Calm - N/A   Clear
1:55 AM 64.6 °F - 60.6 °F 87% 30.12 in 10.0 mi Calm Calm - N/A   Clear
2:15 AM 65.1 °F - 61.0 °F 86% 30.12 in 10.0 mi NNE 4.6 mph - N/A   Clear
2:35 AM 64.8 °F - 61.0 °F 88% 30.12 in 10.0 mi NE 3.5 mph - N/A   Clear
2:55 AM 64.4 °F - 61.2 °F 89% 30.12 in 10.0 mi NNE 4.6 mph - N/A   Clear
3:15 AM 64.6 °F - 61.2 °F 89% 30.12 in 10.0 mi NNE 3.5 mph - N/A   Clear
3:35 AM 64.4 °F - 61.2 °F 89% 30.12 in 10.0 mi NNE 3.5 mph - N/A   Clear
3:55 AM 64.0 °F - 61.2 °F 90% 30.13 in 10.0 mi NNE 4.6 mph - N/A   Clear
4:15 AM 64.4 °F - 61.3 °F 90% 30.13 in 10.0 mi NNE 4.6 mph - N/A   Mostly Cloudy
4:35 AM 64.4 °F - 61.3 °F 90% 30.13 in 10.0 mi NNE 4.6 mph - N/A   Mostly Cloudy
4:55 AM 64.0 °F - 61.3 °F 91% 30.13 in 10.0 mi NE 4.6 mph - N/A   Scattered Clouds
5:15 AM 64.0 °F - 61.2 °F 90% 30.13 in 10.0 mi NNE 5.8 mph - N/A   Scattered Clouds
5:35 AM 64.4 °F - 61.3 °F 90% 30.14 in 10.0 mi NE 5.8 mph - N/A   Mostly Cloudy
5:55 AM 64.4 °F - 61.3 °F 90% 30.14 in 10.0 mi NE 4.6 mph - N/A   Mostly Cloudy
6:15 AM 64.4 °F - 61.5 °F 90% 30.15 in 10.0 mi NE 4.6 mph - N/A   Mostly Cloudy
6:35 AM 64.6 °F - 61.3 °F 89% 30.15 in 10.0 mi NE 3.5 mph - N/A   Mostly Cloudy
6:55 AM 64.0 °F - 61.3 °F 91% 30.15 in 10.0 mi NE 3.5 mph - N/A   Mostly Cloudy
7:15 AM 63.9 °F - 61.3 °F 91% 30.16 in 10.0 mi NE 4.6 mph - N/A   Mostly Cloudy
7:35 AM 64.4 °F - 61.3 °F 90% 30.16 in 10.0 mi NE 4.6 mph - N/A   Mostly Cloudy
7:55 AM 64.8 °F - 61.7 °F 90% 30.17 in 10.0 mi NE 5.8 mph - N/A   Mostly Cloudy
8:15 AM 66.0 °F - 62.2 °F 88% 30.17 in 10.0 mi NE 6.9 mph - N/A   Mostly Cloudy
8:35 AM 66.4 °F - 62.4 °F 87% 30.18 in 10.0 mi NE 5.8 mph - N/A   Scattered Clouds
8:55 AM 68.2 °F - 62.8 °F 83% 30.19 in 10.0 mi NE 6.9 mph - N/A   Scattered Clouds
9:15 AM 69.4 °F - 63.0 °F 80% 30.19 in 10.0 mi ENE 6.9 mph - N/A   Clear
9:35 AM 71.1 °F - 62.8 °F 75% 30.19 in 10.0 mi NE 8.1 mph - N/A   Clear
9:55 AM 72.7 °F - 63.0 °F 71% 30.20 in 10.0 mi ENE 8.1 mph - N/A   Scattered Clouds
10:15 AM 73.8 °F - 63.5 °F 70% 30.20 in 10.0 mi ENE 9.2 mph - N/A   Scattered Clouds
10:35 AM 75.0 °F - 64.0 °F 69% 30.21 in 10.0 mi East 9.2 mph - N/A   Clear
10:55 AM 76.6 °F - 64.8 °F 67% 30.21 in 10.0 mi NE 9.2 mph - N/A   Clear
11:15 AM 77.0 °F - 64.4 °F 65% 30.21 in 10.0 mi NE 10.4 mph - N/A   Scattered Clouds
11:35 AM 78.3 °F - 64.2 °F 62% 30.21 in 10.0 mi NE 6.9 mph - N/A   Mostly Cloudy
11:55 AM 79.3 °F - 64.6 °F 60% 30.20 in 10.0 mi NE 8.1 mph - N/A   Scattered Clouds
12:15 PM 80.4 °F 82.2 °F 64.8 °F 59% 30.20 in 10.0 mi ENE 9.2 mph - N/A   Clear
12:35 PM 80.8 °F 82.5 °F 64.9 °F 58% 30.19 in 10.0 mi ENE 5.8 mph - N/A   Scattered Clouds
12:55 PM 80.8 °F 82.6 °F 65.3 °F 59% 30.19 in 10.0 mi ENE 6.9 mph - N/A   Scattered Clouds
1:15 PM 80.1 °F 82.1 °F 65.8 °F 62% 30.18 in 10.0 mi NE 5.8 mph - N/A   Clear
1:35 PM 80.6 °F 82.7 °F 66.0 °F 61% 30.17 in 10.0 mi ENE 8.1 mph - N/A   Scattered Clouds
1:55 PM 82.4 °F 84.2 °F 65.5 °F 56% 30.17 in 10.0 mi East 3.5 mph - N/A   Scattered Clouds
2:15 PM 84.2 °F 86.8 °F 66.7 °F 56% 30.16 in 10.0 mi ENE 6.9 mph - N/A   Scattered Clouds
2:35 PM 83.8 °F 86.0 °F 66.2 °F 55% 30.15 in 10.0 mi East 5.8 mph - N/A   Mostly Cloudy
2:55 PM 84.4 °F 86.8 °F 66.6 °F 55% 30.14 in 10.0 mi East 6.9 mph - N/A   Scattered Clouds
3:15 PM 83.5 °F 85.1 °F 64.9 °F 53% 30.14 in 10.0 mi ENE 5.8 mph - N/A   Mostly Cloudy
3:35 PM 84.4 °F 86.6 °F 65.8 °F 54% 30.13 in 10.0 mi ESE 4.6 mph - N/A   Mostly Cloudy
3:55 PM 83.5 °F 85.3 °F 65.3 °F 54% 30.13 in 10.0 mi ENE 3.5 mph - N/A   Mostly Cloudy
4:15 PM 82.8 °F 84.7 °F 65.7 °F 56% 30.12 in 10.0 mi East 4.6 mph - N/A   Scattered Clouds
4:35 PM 83.8 °F 85.8 °F 65.5 °F 54% 30.12 in 10.0 mi East 3.5 mph - N/A   Mostly Cloudy
4:55 PM 83.8 °F 85.8 °F 65.5 °F 54% 30.12 in 10.0 mi East 4.6 mph - N/A   Mostly Cloudy
5:15 PM 82.6 °F 84.9 °F 66.6 °F 58% 30.12 in 10.0 mi ESE 5.8 mph - N/A   Mostly Cloudy
5:35 PM 83.1 °F 85.7 °F 66.9 °F 58% 30.11 in 10.0 mi ESE 5.8 mph - N/A   Scattered Clouds
5:55 PM 81.0 °F 83.4 °F 67.5 °F 63% 30.12 in 10.0 mi SE 5.8 mph - N/A   Mostly Cloudy
6:15 PM 80.2 °F 82.8 °F 68.0 °F 66% 30.12 in 10.0 mi SE 5.8 mph - N/A   Scattered Clouds
6:35 PM 80.1 °F 82.7 °F 68.2 °F 67% 30.12 in 10.0 mi ESE 5.8 mph - N/A   Mostly Cloudy
6:55 PM 78.8 °F - 68.2 °F 70% 30.12 in 10.0 mi ESE 5.8 mph - N/A   Scattered Clouds
7:15 PM 77.4 °F - 68.2 °F 73% 30.13 in 10.0 mi ESE 4.6 mph - N/A   Clear
7:35 PM 76.3 °F - 68.2 °F 76% 30.12 in 10.0 mi SE 5.8 mph - N/A   Clear
7:55 PM 75.6 °F - 68.2 °F 78% 30.13 in 10.0 mi ESE 4.6 mph - N/A   Clear
8:15 PM 74.5 °F - 68.2 °F 81% 30.13 in 10.0 mi Calm Calm - N/A   Scattered Clouds
8:35 PM 73.6 °F - 68.2 °F 83% 30.14 in 10.0 mi East 3.5 mph - N/A   Scattered Clouds
8:55 PM 73.4 °F - 68.5 °F 85% 30.14 in 10.0 mi Calm Calm - N/A   Scattered Clouds
9:15 PM 72.5 °F - 68.5 °F 87% 30.14 in 10.0 mi Calm Calm - N/A   Scattered Clouds
9:35 PM 70.7 °F - 68.2 °F 92% 30.14 in 10.0 mi Calm Calm - N/A   Clear
9:55 PM 71.4 °F - 68.2 °F 89% 30.14 in 10.0 mi Calm Calm - N/A   Clear
10:15 PM 71.6 °F - 68.4 °F 89% 30.15 in 10.0 mi Calm Calm - N/A   Clear
10:35 PM 70.7 °F - 68.0 °F 91% 30.16 in 10.0 mi Calm Calm - N/A   Clear
10:55 PM 70.3 °F - 68.2 °F 93% 30.15 in 10.0 mi Calm Calm - N/A   Clear
11:15 PM 69.8 °F - 67.5 °F 92% 30.15 in 10.0 mi Calm Calm - N/A   Clear
11:35 PM 68.5 °F - 66.7 °F 94% 30.15 in 10.0 mi Calm Calm - N/A   Clear
11:55 PM 68.4 °F - 67.1 °F 96% 30.15 in 7.0 mi Calm Calm - N/A   Clear